Location: Grantsboro
(35.1404°N, 76.8424°W)
Time: 20:28:23
(UTC+00:00)

Cosmos 1953 - Pass Details

Date: 18 January 2020
Orbit: 539 x 558 km, 82.5° (Epoch: 28 February)

Event Time Altitude Azimuth Distance (km) Brightness Sun altitude
Rises 10:01:29 0° 161° (SSE) 2,709 6.2 -26.9°
Reaches altitude 10° 10:03:50 10° 150° (SSE) 1,823 5.4 -26.4°
Maximum altitude 10:07:18 28° 90° (E) 1,050 4.4 -25.7°
Drops below altitude 10° 10:10:47 10° 31° (NNE) 1,844 5.2 -25.0°
Sets 10:13:10 0° 20° (NNE) 2,746 6.0 -24.5°
